Location: Bothwell
(42.3833°S, 147.0000°E)
Time: 20:38:52
(UTC+10:00)

Envisat - Pass Details

Date: 26 February 2024
Orbit: 762 x 764 km, 98.3° (Epoch: 22 April)

Event Time Altitude Azimuth Distance (km) Brightness Sun altitude
Exits shadow 04:23:15 36° 239° (WSW) 1,212 3.8 -24.4°
Drops below altitude 10° 04:26:47 10° 206° (SSW) 2,332 5.6 -23.9°
Sets 04:29:13 0° 199° (SSW) 3,266 6.5 -23.6°
